[[{"header":{"parameterUnit":"m.s-1","parameterCategory":1,"la1":30.2991,"la2":30.254,"lo1":-89.0895,"lo2":-89.0444,"dy":0.0017,"dx":0.0017,"nx":28,"ny":28,"refTime":"2025-09-11T09:00:00:Z","depth":0,"parameterNumber":2,"parameterNumberName":"U-component_of_WINDS"},"data":[0,0,0,0,0,0,0,0,0,0,0,0,0,0,0,0,0,0,0,0,0,0,0,0,0,0,0,0,0,0,0,0,0,0,0,0,0,0,0,0,0,0,0,0,0,0,0,0,0,0,0,0,0,0,0,0,0,0,0.7686,0.7687,0,0.7752,0.7753,0.7754,0.7787,0.7787,0.7787,0.7787,0.7851,0.7853,0.7855,0,0,0,0,0,0,0,0,0,0,0,0,0,0.7585,0.7586,0.7686,0.7687,0.7688,0.7752,0.7753,0.7754,0.7787,0.7787,0.7787,0.7788,0.7851,0.7853,0.7855,0,0,0,0,0,0,0,0,0,0,0,0,0,0.7637,0.7587,0.7686,0.7712,0.7715,0.7752,0.7753,0.7754,0.7787,0.7787,0.7787,0.7788,0.785,0.7853,0.7855,0.787,0,0,0.7863,0.7864,0,0,0,0,0,0,0,0,0.7634,0.7641,0.7708,0.7711,0.7714,0.7762,0.7741,0.7793,0.7787,0.776,0.7787,0.7788,0.7821,0.7826,0.7838,0.7873,0.7875,0.7863,0.7865,0.7866,0.7866,0,0,0,0,0,0,0,0.7631,0.7638,0.7712,0.7709,0.7712,0.7719,0.7727,0.7751,0.7789,0.7762,0.7765,0.7772,0.7823,0.7836,0.784,0.7876,0.7863,0.7865,0.7867,0.7868,0.7925,0.7925,0,0,0,0,0,0,0.7623,0.7635,0.771,0.7714,0.7674,0.7721,0.773,0.7746,0.7789,0.7796,0.7772,0.7774,0.7832,0.7837,0.7842,0.7862,0.7866,0.7868,0.7869,0.7925,0.7925,0.7925,0,0,0,0,0,0,0.7621,0.763,0.7708,0.7675,0.7686,0.7723,0.7741,0.7748,0.7761,0.7797,0.7804,0.7779,0.7832,0.7839,0.7863,0.7865,0.7869,0.7871,0.7925,0.7925,0.7925,0.7902,0,0,0,0,0,0,0.7618,0.7629,0.7636,0.7675,0.7688,0.7728,0.7742,0.7749,0.7765,0.7768,0.7805,0.7811,0.7832,0.7859,0.7865,0.7868,0.7873,0.7925,0.7925,0.7925,0.7902,0.7901,0.79,0,0,0,0,0,0.7614,0.7626,0.7636,0.7645,0.7697,0.7728,0.7735,0.7761,0.7765,0.7772,0.7795,0.781,0.7863,0.7861,0.7869,0.7872,0.7925,0.7925,0.7925,0.7903,0.7901,0.79,0,0,0,0,0,0,0.7584,0.7631,0.7643,0.7668,0.7694,0.7734,0.7743,0.7758,0.7782,0.7783,0.7813,0.7821,0.7842,0.7859,0.7856,0.7888,0.7896,0.7897,0.7876,0.7875,0.7873,0.7869,0.7875,0,0,0,0,0,0.758,0.7603,0.7642,0.7661,0.7673,0.7706,0.772,0.7738,0.7765,0.7776,0.7801,0.7826,0.7848,0.7862,0.7885,0.7905,0.7913,0.7911,0.791,0.7908,0.7909,0.792,0.792,0.7925,0.7925,0.7925,0,0,0.7573,0.7602,0.7614,0.7655,0.7677,0.7699,0.7715,0.7736,0.7752,0.7779,0.7803,0.7822,0.7852,0.7873,0.7884,0.7889,0.791,0.7908,0.7907,0.7909,0.792,0.792,0.7919,0.7925,0.7925,0.7925,0,0,0.757,0.7594,0.7612,0.7634,0.7668,0.7689,0.7693,0.7731,0.7745,0.777,0.779,0.7808,0.7847,0.7867,0.7882,0.7886,0.79,0.7893,0.7885,0.7896,0.7895,0.7895,0.7896,0.7896,0.7894,0.7894,0.7893,0,0.7556,0.7591,0.7619,0.764,0.7657,0.7683,0.7701,0.772,0.7758,0.7769,0.7774,0.7823,0.7844,0.7871,0.7872,0.7883,0.7888,0.7889,0.7894,0.7894,0.7894,0.7895,0.7895,0.7892,0.7893,0.7893,0.7893,0,0.7572,0.7595,0.7605,0.7643,0.7661,0.768,0.771,0.7725,0.774,0.7761,0.7785,0.7812,0.7841,0.7849,0.7864,0.7877,0.7879,0.7888,0.7896,0.7892,0.7893,0.7894,0.7891,0.7891,0.7892,0.7892,0,0,0.7553,0.7606,0.7609,0.7626,0.7665,0.7683,0.7702,0.7731,0.7743,0.7768,0.7785,0.7816,0.7825,0.7842,0.786,0.7869,0.787,0.7877,0.7878,0.7875,0.7886,0.7879,0.7879,0.7879,0.788,0.788,0.7883,0,0.7555,0.7593,0.7619,0.7646,0.7667,0.7692,0.7708,0.7733,0.7752,0.7772,0.7793,0.7815,0.7825,0.7836,0.7846,0.7868,0.7873,0.7868,0.7894,0.7895,0.7886,0.788,0.7873,0.7875,0.7884,0.7884,0.7884,0,0.7564,0.759,0.7619,0.7655,0.7665,0.768,0.7708,0.7727,0.7755,0.7768,0.7787,0.7805,0.7825,0.7831,0.7859,0.7855,0.7867,0.7879,0.788,0.7883,0.7889,0.7883,0.7876,0.7876,0.7886,0.7886,0.7886,0,0.7547,0.7589,0.7612,0.7626,0.7668,0.7678,0.7696,0.7724,0.774,0.7764,0.7774,0.7799,0.7813,0.7832,0.7856,0.7858,0.7881,0.7889,0.7892,0.7891,0.7896,0.7895,0.789,0.7903,0.7903,0.7903,0.7903,0,0.7547,0.7564,0.7605,0.7619,0.7638,0.7667,0.7685,0.7704,0.7729,0.7746,0.7768,0.7784,0.7814,0.7833,0.7852,0.7871,0.7877,0.7888,0.7893,0.7886,0.7885,0.7894,0.7895,0.7903,0.7903,0.7903,0.7903,0,0.7532,0.756,0.7586,0.7624,0.7634,0.7647,0.7679,0.7692,0.7713,0.7734,0.7741,0.7773,0.7796,0.7822,0.7853,0.7865,0.7884,0.7891,0.7875,0.7878,0.7879,0.7878,0.788,0.7882,0.7893,0.7893,0.7893,0,0.753,0.7544,0.7584,0.7598,0.7615,0.7637,0.7653,0.7681,0.7697,0.773,0.7739,0.7764,0.7786,0.7822,0.7847,0.7871,0.7878,0.7877,0.7882,0.7874,0.7878,0.7877,0.7878,0.7875,0.7875,0.7875,0.7875,0,0.7525,0.7538,0.7561,0.7589,0.7608,0.7631,0.7655,0.7664,0.7697,0.7713,0.7738,0.7754,0.7787,0.7811,0.7838,0.7855,0.787,0.7873,0.7875,0.7869,0.7859,0.7864,0.7871,0.7873,0.7873,0.7873,0.7873,0.7874,0.7516,0.753,0.756,0.7585,0.7605,0.7627,0.7642,0.7664,0.7686,0.7715,0.773,0.7754,0.7781,0.7819,0.7835,0.7853,0.7858,0.7861,0.7862,0.7862,0.786,0.7856,0.7858,0.7858,0.7859,0.7859,0.7859,0,0.7512,0.7532,0.7555,0.7588,0.7607,0.7621,0.7647,0.7662,0.7684,0.7707,0.7729,0.7756,0.778,0.7806,0.7831,0.7841,0.7848,0.7846,0.7846,0.7849,0.7854,0.785,0.784,0.784,0.784,0.784,0.784,0.784,0.7512,0.7535,0.7551,0.7584,0.7604,0.7629,0.7643,0.7663,0.7682,0.7713,0.7733,0.775,0.7775,0.7802,0.7823,0.783,0.7838,0.7834,0.7843,0.7848,0.7849,0.7851,0.7847,0.7836,0.7836,0.7837,0.7837,0.7837]},{"header":{"parameterUnit":"m.s-1","parameterCategory":1,"la1":30.2991,"la2":30.254,"lo1":-89.0895,"lo2":-89.0444,"dy":0.0017,"dx":0.0017,"nx":28,"ny":28,"refTime":"2025-09-11T09:00:00:Z","depth":0,"parameterNumber":3,"parameterNumberName":"V-component_of_WINDS"},"data":[0,0,0,0,0,0,0,0,0,0,0,0,0,0,0,0,0,0,0,0,0,0,0,0,0,0,0,0,0,0,0,0,0,0,0,0,0,0,0,0,0,0,0,0,0,0,0,0,0,0,0,0,0,0,0,0,0,0,3.0346,3.0346,0,3.0355,3.0355,3.0355,3.0307,3.0305,3.0304,3.0303,3.031,3.0311,3.0313,0,0,0,0,0,0,0,0,0,0,0,0,0,3.0287,3.0288,3.0346,3.0346,3.0347,3.0355,3.0355,3.0355,3.0307,3.0305,3.0304,3.0302,3.031,3.0311,3.0313,0,0,0,0,0,0,0,0,0,0,0,0,0,3.0306,3.0289,3.0346,3.0324,3.0322,3.0355,3.0355,3.0355,3.0307,3.0305,3.0303,3.0301,3.0309,3.0311,3.0313,3.0368,0,0,3.032,3.0321,0,0,0,0,0,0,0,0,3.0305,3.0308,3.0327,3.0325,3.0323,3.0328,3.0337,3.0359,3.0308,3.0313,3.0303,3.03,3.0317,3.0319,3.0325,3.0369,3.0369,3.032,3.0322,3.0323,3.0323,0,0,0,0,0,0,0,3.0303,3.0307,3.035,3.0327,3.0325,3.0312,3.0313,3.0341,3.0326,3.0312,3.0309,3.031,3.0316,3.0323,3.0325,3.0369,3.032,3.0322,3.0324,3.0324,3.0459,3.0461,0,0,0,0,0,0,3.0305,3.0307,3.0349,3.035,3.0309,3.0315,3.0316,3.0328,3.0326,3.0324,3.0312,3.0308,3.032,3.0322,3.0325,3.039,3.0323,3.0325,3.0326,3.0457,3.0459,3.0462,0,0,0,0,0,0,3.0304,3.031,3.0349,3.0327,3.0331,3.0318,3.0333,3.0329,3.0336,3.0326,3.0323,3.0322,3.0319,3.0322,3.0358,3.0389,3.0326,3.0328,3.0454,3.0457,3.0461,3.0519,0,0,0,0,0,0,3.0303,3.031,3.0331,3.0328,3.0333,3.0383,3.0335,3.0331,3.034,3.0335,3.0335,3.0332,3.0317,3.0355,3.036,3.0391,3.0329,3.0451,3.0456,3.046,3.0515,3.0524,3.0533,0,0,0,0,0,3.0301,3.0346,3.0332,3.0337,3.0359,3.0385,3.0387,3.0369,3.0343,3.0364,3.0358,3.0332,3.0385,3.0359,3.0365,3.0397,3.0449,3.0454,3.0459,3.0511,3.0522,3.0533,0,0,0,0,0,0,3.0352,3.0346,3.033,3.0376,3.0381,3.0376,3.0402,3.0382,3.0395,3.0389,3.0366,3.0366,3.0407,3.0405,3.0377,3.045,3.0412,3.0419,3.045,3.0461,3.047,3.0469,3.0331,0,0,0,0,0,3.0369,3.0391,3.0384,3.0425,3.0429,3.0415,3.0426,3.0412,3.0416,3.0418,3.0414,3.0419,3.0436,3.0448,3.0464,3.0514,3.0513,3.0539,3.0548,3.0555,3.0561,3.0588,3.0599,3.0478,3.0478,3.0478,0,0,3.0404,3.0403,3.0418,3.0436,3.0438,3.0461,3.0417,3.0443,3.046,3.0421,3.0456,3.0453,3.0457,3.0501,3.052,3.0501,3.0594,3.0562,3.0568,3.0569,3.0594,3.0606,3.0616,3.0482,3.0481,3.0481,0,0,3.0479,3.0481,3.0516,3.0519,3.0524,3.0515,3.0523,3.0521,3.0518,3.0553,3.0524,3.0544,3.0574,3.0578,3.0585,3.0662,3.0639,3.0668,3.0715,3.0741,3.0751,3.0759,3.0787,3.0798,3.0673,3.0674,3.0674,0,3.0522,3.0556,3.0536,3.0564,3.0573,3.054,3.0575,3.0579,3.0588,3.0595,3.0573,3.0612,3.0612,3.0656,3.0675,3.0681,3.069,3.0668,3.0751,3.0759,3.0767,3.0793,3.0804,3.0677,3.0677,3.0676,3.0676,0,3.0608,3.0632,3.066,3.0671,3.0682,3.0714,3.0698,3.0712,3.0697,3.069,3.0726,3.0725,3.074,3.0749,3.0734,3.0792,3.078,3.0755,3.0717,3.0782,3.0807,3.0817,3.0682,3.0681,3.068,3.0679,0,0,3.0716,3.0716,3.0727,3.0731,3.0734,3.0752,3.0782,3.0797,3.081,3.0817,3.0842,3.0869,3.0846,3.0853,3.0838,3.0862,3.0924,3.0834,3.0834,3.0851,3.0988,3.1007,3.1019,3.0909,3.0911,3.0912,3.0988,0,3.0791,3.0843,3.0826,3.0878,3.09,3.0869,3.0895,3.0899,3.0894,3.0911,3.0904,3.0924,3.0892,3.0897,3.0918,3.0912,3.0951,3.0906,3.0931,3.0933,3.0932,3.1032,3.1052,3.1123,3.0997,3.0999,3.1,0,3.0884,3.0896,3.0951,3.0951,3.0959,3.0983,3.0996,3.1013,3.1018,3.1012,3.102,3.1,3.1029,3.0991,3.1031,3.1001,3.101,3.1009,3.1011,3.1013,3.0971,3.1037,3.1145,3.1156,3.1015,3.1013,3.1012,0,3.0959,3.0988,3.1025,3.103,3.103,3.1048,3.1049,3.1051,3.1061,3.1072,3.1079,3.1093,3.1101,3.1112,3.1097,3.107,3.1139,3.1099,3.1135,3.1136,3.1151,3.1151,3.1263,3.1157,3.1156,3.1156,3.1156,0,3.1044,3.1079,3.1059,3.1082,3.112,3.11,3.1138,3.1135,3.1138,3.1159,3.1132,3.1153,3.1131,3.115,3.1138,3.1173,3.1176,3.1172,3.1169,3.1175,3.1176,3.1181,3.1176,3.1159,3.1158,3.1158,3.1157,0,3.1133,3.1122,3.116,3.1157,3.1157,3.1185,3.1183,3.1203,3.1196,3.1223,3.1228,3.1216,3.1237,3.1222,3.1243,3.1234,3.1281,3.127,3.128,3.1277,3.1314,3.1311,3.1435,3.145,3.1333,3.1334,3.1335,0,3.1189,3.1215,3.1216,3.1228,3.1231,3.1252,3.1262,3.1244,3.1256,3.1263,3.1283,3.1301,3.1315,3.1349,3.1342,3.1357,3.1347,3.1389,3.1349,3.1354,3.1348,3.1347,3.135,3.1397,3.1399,3.14,3.1401,0,3.1289,3.1282,3.1299,3.1314,3.1327,3.1338,3.1346,3.1358,3.1339,3.1354,3.1375,3.1386,3.1407,3.1425,3.1438,3.1438,3.1417,3.1413,3.1422,3.143,3.1434,3.1433,3.1303,3.1411,3.141,3.1409,3.1408,3.1408,3.1364,3.1386,3.139,3.1409,3.1414,3.1422,3.1442,3.1437,3.1454,3.147,3.1458,3.1483,3.1486,3.1501,3.1504,3.1523,3.1506,3.1519,3.1523,3.1526,3.1532,3.1431,3.1525,3.1525,3.1525,3.1525,3.1524,0,3.1463,3.1464,3.1482,3.1495,3.1511,3.1489,3.1497,3.1512,3.1534,3.154,3.1554,3.1578,3.1596,3.159,3.1606,3.1622,3.1613,3.1627,3.1626,3.1627,3.1546,3.1537,3.1635,3.1635,3.1635,3.1635,3.1635,3.1635,3.1516,3.1553,3.1546,3.1585,3.1585,3.161,3.1617,3.1624,3.1629,3.1657,3.1672,3.1668,3.1669,3.1685,3.17,3.1698,3.1705,3.1724,3.1718,3.1643,3.1632,3.1622,3.1613,3.1725,3.1725,3.1797,3.1797,3.1798]}]]